Staples, MN

4:22 AM CDT on April 27, 2018 (GMT -0500)
Staples Municipal

Weather History for KSAZ - January, 2014

Change the Weather History Date:

Friday, January 3, 2014

  Actual Average Record
Temperature  
Mean Temperature 5 °F -  
Max Temperature 24 °F 17 °F 39 °F (2007)
Min Temperature -14 °F 3 °F -16 °F (2011)
Degree Days  
Heating Degree Days 60    
Moisture  
Dew Point 3 °F    
Average Humidity 82    
Maximum Humidity 100    
Minimum Humidity 71    
Precipitation  
Precipitation 0.00 in - - ()
Sea Level Pressure  
Sea Level Pressure 29.63 in    
Wind  
Wind Speed 12 mph (SSE)    
Max Wind Speed 23 mph    
Max Gust Speed 29 mph    
Visibility 8 miles    
Events Snow    
Averages and records for this station are not official NWS values.
T = Trace of Precipitation, MM = Missing Value Source: NWS Daily Summary

Daily Weather History Graph

Daily Weather History Graph

Search for Another Location

Airport or City:

Astronomy

Jan. 03, 2014 Rise Set
Actual Time 8:02 AM CST 4:45 PM CST
Civil Twilight 7:27 AM CST 5:19 PM CST
Nautical Twilight 6:49 AM CST 5:57 PM CST
Astronomical Twilight 6:13 AM CST 6:34 PM CST
Moon 9:18 AM CST (1/3) 8:07 PM CST (1/3)
Length of Visible Light 9h 51m
Length of Day
8h 42m
Waxing Crescent, 8% of the Moon is Illuminated
Jan 3
Waxing Crescent
Jan 7
First Quarter
Jan 15
Full
Jan 23
Last Quarter
Jan 30
New

Hourly Weather History & Observations

Time (CST) Temp. Windchill Dew Point Humidity Pressure Visibility Wind Dir Wind Speed Gust Speed Precip Events Conditions
12:13 AM -14.8 °F -32.2 °F -18.4 °F 84% 30.18 in 10.0 mi South 8.1 mph - N/A   Clear
12:34 AM -14.8 °F -33.5 °F -18.4 °F 84% 30.18 in 10.0 mi South 9.2 mph - N/A   Clear
12:53 AM -13.0 °F -31.3 °F -18.4 °F 77% 30.17 in 10.0 mi South 9.2 mph - N/A   Clear
1:13 AM -13.0 °F -31.3 °F -18.4 °F 77% 30.14 in 10.0 mi SSE 9.2 mph - N/A   Scattered Clouds
1:34 AM -11.2 °F -29.0 °F -16.6 °F 77% 30.14 in 10.0 mi South 9.2 mph - N/A   Scattered Clouds
1:53 AM -11.2 °F -30.1 °F -16.6 °F 77% 30.13 in 10.0 mi South 10.4 mph - N/A   Mostly Cloudy
2:13 AM -9.4 °F -30.6 °F -14.8 °F 77% 30.11 in 10.0 mi South 13.8 mph - N/A   Overcast
2:34 AM -7.6 °F -27.5 °F -14.8 °F 71% 30.09 in 10.0 mi South 12.7 mph - N/A   Overcast
2:53 AM -7.6 °F -25.7 °F -13.0 °F 77% 30.06 in 10.0 mi SSE 10.4 mph - N/A   Overcast
3:13 AM -7.6 °F -25.7 °F -13.0 °F 77% 30.04 in 10.0 mi SSE 10.4 mph 18.4 mph N/A   Overcast
3:33 AM -5.8 °F -22.4 °F -13.0 °F 71% 30.03 in 10.0 mi SSE 9.2 mph - N/A   Overcast
3:54 AM -5.8 °F -23.4 °F -13.0 °F 71% 30.01 in 10.0 mi SSE 10.4 mph 17.3 mph N/A   Overcast
4:13 AM -5.8 °F -21.2 °F -11.2 °F 77% 29.98 in 10.0 mi SE 8.1 mph - N/A   Overcast
4:33 AM -4.0 °F -23.0 °F -11.2 °F 71% 29.95 in 10.0 mi SE 12.7 mph 18.4 mph N/A   Overcast
4:54 AM -4.0 °F -21.2 °F -11.2 °F 71% 29.94 in 10.0 mi SSE 10.4 mph 17.3 mph N/A   Overcast
5:13 AM -2.2 °F -18.0 °F -9.4 °F 71% 29.92 in 10.0 mi SSE 9.2 mph - N/A   Overcast
5:33 AM -2.2 °F -20.7 °F -9.4 °F 71% 29.89 in 10.0 mi SSE 12.7 mph 17.3 mph N/A   Overcast
5:53 AM -0.4 °F -19.2 °F -7.6 °F 72% 29.86 in 10.0 mi SSE 13.8 mph - N/A   Overcast
6:14 AM -0.4 °F -16.7 °F -7.6 °F 72% 29.86 in 10.0 mi SSE 10.4 mph 18.4 mph N/A   Overcast
6:33 AM -2.2 °F -20.7 °F -9.4 °F 71% 29.84 in 10.0 mi SSE 12.7 mph 17.3 mph N/A   Overcast
6:53 AM -2.2 °F -18.9 °F -7.6 °F 78% 29.82 in 10.0 mi SSE 10.4 mph 20.7 mph N/A   Overcast
7:14 AM -0.4 °F -17.6 °F -7.6 °F 72% 29.80 in 10.0 mi SSE 11.5 mph - N/A   Overcast
7:33 AM -0.4 °F -19.2 °F -5.8 °F 78% 29.79 in 10.0 mi SSE 13.8 mph - N/A   Overcast
7:53 AM 1.4 °F -15.3 °F -5.8 °F 72% 29.78 in 10.0 mi SSE 11.5 mph 17.3 mph N/A   Overcast
8:13 AM 1.4 °F -14.5 °F -5.8 °F 72% 29.75 in 10.0 mi SE 10.4 mph - N/A   Overcast
8:33 AM 1.4 °F -15.3 °F -4.0 °F 78% 29.73 in 10.0 mi SSE 11.5 mph 17.3 mph N/A   Overcast
8:54 AM 1.4 °F -19.4 °F -2.2 °F 85% 29.71 in 3.0 mi SSE 18.4 mph 25.3 mph N/A   Haze
9:13 AM 3.2 °F -16.5 °F -2.2 °F 78% 29.69 in 3.0 mi SSE 17.3 mph 28.8 mph N/A   Haze
9:34 AM 3.2 °F -16.5 °F -2.2 °F 78% 29.68 in 7.0 mi SSE 17.3 mph 20.7 mph N/A   Overcast
9:53 AM 3.2 °F -17.1 °F -0.4 °F 85% 29.67 in 4.0 mi SSE 18.4 mph 21.9 mph N/A   Haze
10:13 AM 5.0 °F -14.7 °F -0.4 °F 78% 29.65 in 4.0 mi South 18.4 mph 26.5 mph N/A   Haze
10:33 AM 6.8 °F -14.3 °F 1.4 °F 79% 29.64 in 3.0 mi South 23.0 mph 27.6 mph N/A   Haze
10:54 AM 6.8 °F -12.4 °F 1.4 °F 79% 29.61 in 5.0 mi South 18.4 mph 24.2 mph N/A   Haze
11:13 AM 8.6 °F -10.0 °F 1.4 °F 73% 29.60 in 5.0 mi South 18.4 mph 26.5 mph N/A   Haze
11:33 AM 8.6 °F -11.4 °F 3.2 °F 79% 29.57 in 4.0 mi South 21.9 mph 28.8 mph N/A   Haze
11:54 AM 8.6 °F -10.0 °F 3.2 °F 79% 29.56 in 4.0 mi SSE 18.4 mph 26.5 mph N/A   Haze
12:13 PM 8.6 °F -8.9 °F 3.2 °F 79% 29.56 in 5.0 mi South 16.1 mph 25.3 mph N/A   Haze
12:33 PM 8.6 °F -7.7 °F 3.2 °F 79% 29.54 in 7.0 mi South 13.8 mph 20.7 mph N/A   Overcast
12:54 PM 10.4 °F -7.7 °F 6.8 °F 85% 29.51 in 4.0 mi South 18.4 mph 24.2 mph N/A   Overcast
1:13 PM 10.4 °F -6.6 °F 6.8 °F 85% 29.49 in 7.0 mi SSE 16.1 mph 20.7 mph N/A   Overcast
1:33 PM 10.4 °F -7.2 °F 6.8 °F 85% 29.47 in 5.0 mi SSE 17.3 mph 24.2 mph N/A   Overcast
1:54 PM 12.2 °F -4.3 °F 6.8 °F 79% 29.46 in 7.0 mi South 16.1 mph - N/A   Overcast
2:13 PM 12.2 °F -4.8 °F 8.6 °F 85% 29.44 in 7.0 mi SSE 17.3 mph 25.3 mph N/A   Overcast
2:33 PM 12.2 °F -5.8 °F 8.6 °F 85% 29.43 in 2.0 mi South 19.6 mph 26.5 mph N/A Snow Light Snow
2:53 PM 12.2 °F -4.3 °F 8.6 °F 85% 29.40 in 5.0 mi SSE 16.1 mph 24.2 mph N/A Snow Light Snow
3:14 PM 12.2 °F -4.8 °F 8.6 °F 85% 29.39 in 7.0 mi SSE 17.3 mph 25.3 mph N/A   Mostly Cloudy
3:33 PM 14.0 °F -3.0 °F 10.4 °F 86% 29.38 in 7.0 mi SSE 18.4 mph - N/A   Mostly Cloudy
3:53 PM 14.0 °F -1.4 °F 10.4 °F 86% 29.40 in 10.0 mi South 15.0 mph 23.0 mph N/A   Overcast
4:14 PM 15.8 °F 0.9 °F 10.4 °F 79% 29.40 in 7.0 mi South 15.0 mph 25.3 mph N/A   Overcast
4:33 PM 15.8 °F 2.7 °F 10.4 °F 79% 29.40 in 7.0 mi South 11.5 mph 20.7 mph N/A   Overcast
4:53 PM 15.8 °F 0.9 °F 10.4 °F 79% 29.40 in 10.0 mi South 15.0 mph 20.7 mph N/A   Overcast
5:14 PM 15.8 °F -0.6 °F 12.2 °F 86% 29.38 in 7.0 mi South 18.4 mph - N/A   Overcast
5:33 PM 15.8 °F 0.3 °F 12.2 °F 86% 29.38 in 7.0 mi South 16.1 mph - N/A   Overcast
5:53 PM 15.8 °F 1.4 °F 14.0 °F 93% 29.36 in 7.0 mi South 13.8 mph 20.7 mph N/A   Overcast
6:14 PM 17.6 °F 3.7 °F 14.0 °F 86% 29.36 in 7.0 mi South 13.8 mph - N/A   Overcast
6:33 PM 17.6 °F 5.0 °F 15.8 °F 93% 29.35 in 7.0 mi South 11.5 mph - N/A   Mostly Cloudy
6:53 PM 17.6 °F 4.3 °F 15.8 °F 93% 29.35 in 7.0 mi South 12.7 mph - N/A   Mostly Cloudy
7:14 PM 17.6 °F 4.3 °F 15.8 °F 93% 29.35 in 7.0 mi South 12.7 mph - N/A   Overcast
7:33 PM 19.4 °F 7.9 °F 15.8 °F 86% 29.34 in 10.0 mi South 10.4 mph - N/A   Mostly Cloudy
7:53 PM 19.4 °F 7.9 °F 17.6 °F 93% 29.34 in 7.0 mi South 10.4 mph - N/A   Overcast
8:14 PM 19.4 °F 6.6 °F 17.6 °F 93% 29.32 in 7.0 mi SSE 12.7 mph - N/A   Overcast
8:33 PM 19.4 °F 5.5 °F 17.6 °F 93% 29.30 in 5.0 mi South 15.0 mph - N/A Snow Light Snow
8:53 PM 19.4 °F 6.0 °F 17.6 °F 93% 29.31 in 7.0 mi South 13.8 mph - N/A   Overcast
9:14 PM 21.2 °F 10.1 °F 19.4 °F 93% 29.31 in 7.0 mi South 10.4 mph - N/A   Overcast
9:33 PM 21.2 °F 11.7 °F 19.4 °F 93% 29.32 in 7.0 mi South 8.1 mph - N/A   Overcast
9:53 PM 21.2 °F 10.1 °F 21.2 °F 100% 29.30 in 2.5 mi South 10.4 mph - N/A   Overcast
10:14 PM 23.0 °F 12.4 °F 21.2 °F 93% 29.33 in 4.0 mi SSW 10.4 mph - N/A   Overcast
10:33 PM 23.0 °F 12.4 °F 21.2 °F 93% 29.31 in 7.0 mi SSW 10.4 mph - N/A   Overcast
10:53 PM 24.8 °F 16.9 °F 21.2 °F 86% 29.32 in 7.0 mi SSW 6.9 mph - N/A   Overcast
11:14 PM 24.8 °F 19.1 °F 23.0 °F 93% 29.30 in 7.0 mi South 4.6 mph - N/A   Overcast
11:33 PM 24.8 °F - 23.0 °F 93% 29.31 in 7.0 mi Calm Calm - N/A   Overcast
11:53 PM 24.8 °F - 21.2 °F 86% 29.31 in 7.0 mi Calm Calm - N/A   Overcast